Dansville, NY

4:32 AM EST on December 07, 2019 (GMT -0500)
Dansville Municipal

Weather History for KDSV - July, 2019

Change the Weather History Date:

Friday, July 19, 2019

  Actual Average Record
Temperature  
Mean Temperature 81 °F -  
Max Temperature 91 °F 85 °F 98 °F (1953)
Min Temperature 71 °F 60 °F 48 °F (1971)
Cooling Degree Days 16    
Growing Degree Days 31 (Base 50)    
Moisture  
Dew Point 72 °F    
Average Humidity 77    
Maximum Humidity 91    
Minimum Humidity 61    
Precipitation  
Precipitation 0.00 in - - ()
Sea Level Pressure  
Sea Level Pressure 29.89 in    
Wind  
Wind Speed 7 mph (SSE)    
Max Wind Speed 10 mph    
Max Gust Speed -    
Visibility 10 miles    
Events      
Averages and records for this station are not official NWS values.
T = Trace of Precipitation, MM = Missing Value Source: NWS Daily Summary

Daily Weather History Graph

Daily Weather History Graph

Search for Another Location

Airport or City:

Astronomy

Jul. 19, 2019 Rise Set
Actual Time 5:49 AM EDT 8:43 PM EDT
Civil Twilight 5:16 AM EDT 9:17 PM EDT
Nautical Twilight 4:34 AM EDT 9:59 PM EDT
Astronomical Twilight 3:44 AM EDT 10:48 PM EDT
Moon 10:38 PM EDT (7/19) 8:16 AM EDT (7/19)
Length of Visible Light 16h 00m
Length of Day
14h 53m
Waning Gibbous, 93% of the Moon is Illuminated
Jul 19
Waning Gibbous
Jul 24
Last Quarter
Jul 31
New
Aug 7
First Quarter
Aug 15
Full

Hourly Weather History & Observations

Time (EDT) Temp. Heat Index Dew Point Humidity Pressure Visibility Wind Dir Wind Speed Gust Speed Precip Events Conditions
12:54 AM 73.0 °F - 70.0 °F 90% 29.91 in 10.0 mi ESE 8.1 mph - N/A   Clear
1:54 AM 72.0 °F - 69.1 °F 91% 29.90 in 10.0 mi ESE 6.9 mph - N/A   Clear
2:54 AM 72.0 °F - 69.1 °F 91% 29.89 in 10.0 mi SE 9.2 mph - N/A   Clear
3:54 AM 71.1 °F - 68.0 °F 90% 29.88 in 10.0 mi ESE 9.2 mph - N/A   Clear
4:54 AM 72.0 °F - 68.0 °F 87% 29.88 in 10.0 mi SE 4.6 mph - N/A   Clear
5:54 AM 71.1 °F - 68.0 °F 90% 29.88 in 10.0 mi SSE 6.9 mph - N/A   Clear
6:54 AM 72.0 °F - 68.0 °F 87% 29.88 in 10.0 mi SSE 4.6 mph - N/A   Partly Cloudy
7:30 AM 73.9 °F - 69.1 °F 85% 29.88 in 10.0 mi SSE 6.9 mph - N/A   Mostly Cloudy
7:54 AM 75.9 °F - 70.0 °F 82% 29.89 in 10.0 mi SE 5.8 mph - N/A   Scattered Clouds
8:07 AM 77.0 °F - 71.1 °F 82% 29.88 in 10.0 mi ESE 5.8 mph - N/A   Mostly Cloudy
8:40 AM 82.0 °F 87.4 °F 73.0 °F 74% 29.88 in 10.0 mi Calm Calm - N/A   Scattered Clouds
8:54 AM 82.0 °F 87.4 °F 73.0 °F 74% 29.89 in 10.0 mi Calm Calm - N/A   Scattered Clouds
9:54 AM 84.0 °F 90.2 °F 73.0 °F 69% 29.89 in 10.0 mi SSW 4.6 mph - N/A   Mostly Cloudy
10:54 AM 84.9 °F 92.1 °F 73.9 °F 69% 29.90 in 10.0 mi Variable 3.5 mph - N/A   Overcast
11:07 AM 84.9 °F 92.1 °F 73.9 °F 69% 29.89 in 10.0 mi WNW 4.6 mph - N/A   Overcast
11:54 AM 86.0 °F 95.1 °F 75.0 °F 70% 29.89 in 10.0 mi Variable 4.6 mph - N/A   Overcast
12:54 PM 89.1 °F 100.2 °F 75.9 °F 65% 29.88 in 10.0 mi Variable 5.8 mph - N/A   Mostly Cloudy
1:54 PM 90.0 °F 101.3 °F 75.9 °F 63% 29.87 in 10.0 mi Variable 3.5 mph - N/A   Overcast
2:54 PM 90.0 °F 102.5 °F 77.0 °F 65% 29.89 in 10.0 mi NW 9.2 mph - N/A   Mostly Cloudy
3:54 PM 91.0 °F 102.9 °F 75.9 °F 61% 29.86 in 10.0 mi NW 10.4 mph - N/A   Mostly Cloudy
4:54 PM 88.0 °F 96.5 °F 73.9 °F 63% 29.83 in 10.0 mi Variable 3.5 mph - N/A   Clear
5:54 PM 86.0 °F 91.5 °F 71.1 °F 61% 29.87 in 10.0 mi WNW 4.6 mph - N/A   Clear
6:54 PM 81.0 °F 85.8 °F 73.0 °F 77% 29.89 in 10.0 mi SSE 9.2 mph - N/A   Clear
7:54 PM 80.1 °F 83.8 °F 72.0 °F 76% 29.90 in 10.0 mi SE 8.1 mph - N/A   Partly Cloudy
8:54 PM 79.0 °F - 71.1 °F 77% 29.90 in 10.0 mi SSE 6.9 mph - N/A   Scattered Clouds
9:54 PM 78.1 °F - 71.1 °F 79% 29.91 in 10.0 mi SE 9.2 mph - N/A   Scattered Clouds
10:54 PM 77.0 °F - 70.0 °F 79% 29.91 in 10.0 mi SE 8.1 mph - N/A   Clear
11:54 PM 77.0 °F - 70.0 °F 79% 29.91 in 10.0 mi ESE 8.1 mph - N/A   Clear